This is the latest recevied weather packets stored in our database for station/object F4FEB-13. If no packets are shown the sender has not sent any weather packets the latest 10 day(s).
| Time | Temp. | Humidity | Pressure | Rain* | Wind** | Luminosity | Snow |
|---|---|---|---|---|---|---|---|
| 1777784065 | 13.89° C | 56% | 1015.7 hPa | 0 mm | - | - | - |
| 1777783765 | 13.89° C | 55% | 1015.8 hPa | 0 mm | - | - | - |
| 1777783470 | 13.33° C | 56% | 1015.8 hPa | 0 mm | - | - | - |
| 1777783465 | 13.33° C | 56% | 1015.8 hPa | 0 mm | - | - | - |
| 1777783166 | 13.33° C | 58% | 1015.9 hPa | 0 mm | - | - | - |
| 1777782865 | 12.78° C | 62% | 1015.7 hPa | 0 mm | - | - | - |
| 1777782569 | 12.78° C | 62% | 1015.6 hPa | 0 mm | - | - | - |
| 1777782565 | 12.78° C | 62% | 1015.6 hPa | 0 mm | - | - | - |
| 1777782265 | 12.22° C | 64% | 1015.6 hPa | 0 mm | - | - | - |
| 1777781965 | 12.22° C | 68% | 1015.6 hPa | 0 mm | - | - | - |
| 1777781669 | 12.78° C | 66% | 1015.7 hPa | 0 mm | - | - | - |
| 1777781666 | 12.78° C | 66% | 1015.7 hPa | 0 mm | - | - | - |
| 1777781366 | 12.78° C | 66% | 1015.6 hPa | 0 mm | - | - | - |
| 1777781066 | 12.22° C | 66% | 1015.7 hPa | 0 mm | - | - | - |
| 1777780766 | 12.22° C | 67% | 1015.7 hPa | 0 mm | - | - | - |
| 1777780466 | 12.22° C | 69% | 1015.8 hPa | 0 mm | - | - | - |
| 1777780166 | 12.22° C | 70% | 1015.7 hPa | 0 mm | - | - | - |
| 1777779866 | 11.67° C | 69% | 1015.7 hPa | 0 mm | - | - | - |
| 1777779566 | 11.67° C | 71% | 1015.8 hPa | 0 mm | - | - | - |
| 1777779266 | 11.11° C | 71% | 1015.8 hPa | 0 mm | - | - | - |
| 1777778966 | 11.11° C | 71% | 1015.8 hPa | 0 mm | - | - | - |
| 1777778666 | 11.11° C | 71% | 1015.7 hPa | 0 mm | - | - | - |
| 1777778366 | 11.11° C | 72% | 1015.8 hPa | 0 mm | - | - | - |
| 1777778066 | 11.11° C | 72% | 1015.9 hPa | 0 mm | - | - | - |
| 1777777766 | 11.11° C | 73% | 1015.9 hPa | 0 mm | - | - | - |
* Rain latest hour (hover to see other rain measurements)
** Current wind speed in m/s (hover to see current wind gust speed)